Theta_e
336 336 336 337 337 336 336 337 338 337 337 336 336 338 342 342 348 345 347 348 347 349 352 354 355 355 356 355 355 356 357 357 359 358 358 357 357 357 357 355 355 355 354 352
337 335 336 336 336 335 335 335 335 335 336 336 336 338 342 343 351 354 355 356 358 352 352 354 355 356 357 356 356 356 358 357 358 360 360 359 359 358 358 357 356 355 355 354
337 334 335 336 335 334 335 336 335 337 336 337 338 344 349 349 354 357 360 362 363 363 362 357 355 357 359 358 357 357 360 359 359 360 360 360 359 359 359 359 358 357 355 355
334 333 336 332 330 332 335 335 339 339 342 347 346 348 350 350 353 354 353 353 353 357 362 361 354 355 357 358 359 359 359 360 360 360 361 361 360 360 360 360 359 358 356 356
329 329 328 328 332 335 336 341 341 342 344 344 346 348 351 348 348 349 349 348 347 346 351 357 358 356 357 358 359 360 361 361 360 360 361 361 361 360 360 360 360 359 357 357
327 328 331 335 331 332 333 337 337 338 338 340 342 353 353 344 344 344 342 342 342 342 343 352 358 359 359 359 358 359 359 359 359 360 359 360 361 361 360 360 360 360 359 357
327 331 330 331 329 330 335 339 334 334 335 335 338 341 339 340 339 338 339 339 338 340 343 347 349 357 360 360 360 359 359 358 357 357 357 357 359 360 360 360 360 360 360 360
327 333 335 329 328 334 333 330 330 331 332 332 332 332 333 334 336 338 337 337 334 336 340 344 344 348 350 351 357 358 359 359 360 360 359 359 359 359 358 358 357 357 357 359
326 328 326 324 324 324 324 326 328 329 328 328 329 330 330 330 332 332 333 335 334 333 335 339 342 344 346 351 349 349 351 350 351 352 352 358 355 346 342 348 338 337 336 335
327 326 327 327 325 326 327 326 326 327 326 326 327 327 328 329 329 330 330 332 334 334 334 335 336 339 343 346 347 350 348 348 347 348 346 350 346 337 335 335 332 334 336 334
327 327 327 327 327 327 326 327 327 326 326 326 326 327 327 328 328 328 328 329 330 333 334 333 333 336 336 341 344 344 343 343 347 346 348 349 348 350 350 339 333 335 330 334
328 327 326 325 325 326 327 327 327 328 328 328 329 328 327 327 326 326 327 327 329 330 332 332 334 332 334 333 339 341 340 339 337 339 342 343 345 345 344 344 346 350 347 339
324 323 323 324 324 325 327 327 326 327 328 327 328 328 328 330 328 325 325 326 328 328 330 330 331 333 334 333 336 337 338 334 335 337 339 337 339 342 342 340 340 342 346 346
323 324 326 325 325 325 326 326 325 326 326 326 327 328 328 329 328 329 329 326 326 327 328 329 330 331 332 333 333 335 334 332 330 329 329 331 334 337 339 338 341 340 340 343
326 325 325 325 325 324 324 325 326 326 326 325 325 328 329 330 330 330 329 328 328 328 327 327 328 330 330 331 333 333 334 330 327 327 329 329 330 332 334 337 338 340 335 333
322 323 324 322 321 320 319 319 319 321 321 322 323 322 324 326 326 326 329 329 328 329 329 329 329 328 329 329 331 330 332 331 329 327 326 328 330 332 330 332 336 338 340 341
321 323 321 319 319 318 318 317 318 318 319 320 320 322 323 324 324 325 329 328 327 328 328 328 328 329 330 329 329 330 329 327 328 328 326 326 325 326 330 331 333 335 338 341
317 320 320 319 319 319 318 317 317 318 318 319 319 321 322 323 325 326 327 327 328 329 329 328 328 329 329 330 330 329 328 327 326 326 326 325 326 326 327 329 332 333 336 339
315 317 319 319 319 319 318 318 317 317 316 317 317 318 322 324 324 327 327 327 328 329 329 329 329 329 328 328 330 330 329 327 326 326 325 325 325 326 329 328 331 332 337 333
313 315 318 319 319 317 318 316 315 315 315 315 315 316 317 319 323 325 326 329 327 327 328 328 329 330 329 328 328 329 329 327 326 326 326 327 330 330 328 328 329 333 336 338
313 314 316 317 319 320 319 318 316 315 314 314 314 314 315 317 317 318 326 326 326 327 329 329 330 330 330 330 329 328 327 326 326 326 327 330 331 330 330 332 335 336 337 338
314 314 314 315 316 318 317 315 315 314 314 313 313 313 313 314 314 315 317 315 316 322 326 329 330 331 330 329 329 330 328 327 327 327 329 331 331 331 332 332 334 335 336 337
314 314 314 314 315 316 317 317 316 317 315 314 313 312 312 313 312 312 313 312 312 314 316 318 323 328 329 329 328 329 329 329 328 329 330 331 331 332 332 330 335 335 336 336
314 314 313 314 313 314 316 315 315 315 316 318 315 313 312 312 313 312 311 310 310 311 312 313 321 326 327 331 330 328 328 328 329 332 331 332 331 333 334 334 335 335 336 336
315 314 313 313 313 312 312 313 313 314 315 316 317 315 313 312 311 311 310 310 309 309 309 310 312 315 317 318 317 318 320 322 322 329 333 332 332 332 333 333 334 333 334 336
314 313 313 313 312 311 310 311 313 312 314 315 315 315 315 313 312 312 312 310 309 309 309 308 309 310 311 311 310 310 310 311 312 314 317 318 321 324 330 334 333 334 335 335
314 312 312 312 312 311 310 310 311 312 311 313 314 315 314 314 314 313 312 311 308 308 308 308 308 308 308 309 309 308 309 309 308 309 309 309 309 309 310 311 315 321 324 327
Wind_Speed
21 23 23 21 19 19 19 19 19 22 23 17 10 15 12 8 9 3 5 5 4 8 10 14 16 17 19 20 22 25 24 27 25 25 25 24 23 23 23 23 24 24 24 25
20 22 23 22 24 24 23 21 21 23 24 20 20 7 9 6 8 7 5 7 7 2 3 8 13 16 17 19 19 20 22 24 23 24 23 24 23 23 23 23 24 24 25 25
21 20 22 21 20 21 22 21 19 21 16 12 7 3 6 5 8 9 9 9 8 7 8 8 8 12 15 17 17 18 18 21 21 22 22 22 23 23 24 24 23 25 26 26
15 17 22 20 21 17 16 14 13 11 16 15 14 7 13 11 8 8 10 11 11 11 13 9 3 7 9 12 14 15 17 19 19 21 23 23 23 24 24 23 24 24 25 26
13 15 21 24 11 12 8 11 19 15 17 15 16 13 8 8 9 9 10 11 13 16 17 14 9 4 4 7 10 12 15 16 18 20 22 24 23 22 21 20 21 21 23 24
12 15 19 12 16 12 12 7 12 15 16 18 17 10 5 11 18 9 10 10 10 11 13 16 13 8 5 5 7 10 12 13 15 16 19 21 21 20 18 20 21 21 21 22
12 16 7 13 18 20 14 5 8 9 8 12 11 9 13 10 3 10 15 12 10 10 8 7 10 8 8 7 7 5 4 6 11 13 12 11 8 11 14 16 19 19 19 19
8 8 5 16 9 8 10 10 10 8 10 10 9 11 14 15 10 12 8 11 11 9 6 6 4 2 4 3 1 6 8 9 10 10 12 13 15 11 10 13 8 12 18 19
8 13 21 16 10 13 15 16 11 9 12 14 16 15 9 7 16 15 13 11 11 9 9 5 5 4 3 3 3 5 5 7 5 2 4 9 15 14 9 14 5 8 6 19
14 14 19 19 12 15 19 17 16 18 16 18 20 19 17 12 10 7 15 10 9 8 9 8 11 4 2 2 2 10 12 15 12 11 11 12 12 15 19 22 12 6 18 11
15 15 21 16 23 22 23 23 25 24 23 22 22 22 20 18 15 17 17 16 14 12 7 7 14 12 8 5 4 10 13 12 9 9 9 9 11 10 8 8 8 2 9 6
11 19 14 18 25 28 25 23 23 22 21 25 24 21 21 20 24 23 21 21 18 16 13 13 13 13 12 14 12 13 13 12 14 10 8 11 7 8 9 10 17 14 20 47
8 12 12 20 21 24 21 22 20 23 21 22 27 27 28 21 28 27 25 25 24 22 19 19 17 18 15 14 17 15 15 12 15 11 12 14 12 9 9 12 12 19 24 28
13 12 12 13 11 20 22 26 28 27 25 27 31 31 28 23 24 29 26 28 28 27 25 23 22 22 20 18 18 18 18 19 17 17 16 15 18 14 12 12 11 15 19 20
15 12 10 13 14 14 21 18 18 17 18 21 28 26 26 16 18 25 25 26 28 28 28 28 25 24 23 23 23 23 23 22 22 22 19 17 17 18 18 14 13 15 11 14
17 17 17 18 17 19 19 19 17 15 16 16 19 24 21 21 25 29 30 25 17 16 25 25 24 25 24 26 26 27 27 27 25 24 24 20 19 19 21 21 17 17 18 18
16 17 13 15 14 16 16 13 13 14 15 17 24 28 24 25 20 26 25 23 21 22 24 26 24 23 24 26 28 28 28 28 28 27 25 25 26 22 21 22 21 17 20 19
13 13 14 10 14 15 16 16 18 19 15 21 23 23 20 21 13 17 18 17 20 21 19 20 21 22 24 26 27 26 26 25 25 25 25 26 27 26 25 23 22 21 19 11
15 14 16 17 16 17 18 18 21 20 22 21 20 18 21 18 19 15 16 17 16 18 21 20 23 25 25 27 29 26 26 25 25 25 24 24 26 25 20 28 23 23 14 12
13 15 18 18 14 16 17 19 21 22 22 22 21 19 17 20 14 15 19 15 14 19 21 21 21 20 20 27 30 27 28 27 26 26 25 21 20 19 21 27 26 17 13 18
12 15 15 16 14 16 17 20 20 21 23 23 21 19 19 18 19 20 10 6 17 21 19 20 22 19 19 19 25 28 29 29 28 28 23 19 16 23 25 21 12 17 20 21
12 12 17 17 18 20 17 20 23 23 23 24 24 24 23 20 22 20 17 20 24 20 16 19 17 12 16 19 20 25 26 27 26 23 17 19 24 25 23 24 19 19 22 20
11 12 14 15 16 18 21 18 20 24 23 25 25 26 24 20 22 18 12 31 27 24 20 14 11 15 15 15 17 22 23 22 22 20 19 20 18 17 19 24 16 19 19 19
10 10 12 14 14 16 16 20 23 23 21 18 27 26 25 22 20 26 24 30 32 26 28 29 15 7 8 11 12 15 15 17 15 15 12 16 18 22 18 18 11 17 20 18
9 9 8 12 12 15 17 19 20 22 20 23 22 26 29 28 25 26 30 30 33 33 31 32 32 29 25 23 21 17 14 15 13 11 14 17 17 16 15 15 16 16 16 16
5 10 8 7 10 12 15 18 17 20 20 19 22 23 18 21 27 27 31 35 35 34 33 34 34 30 30 29 27 26 25 21 21 21 18 18 19 13 11 14 12 12 14 15
0 5 9 8 10 12 13 13 15 16 19 17 18 19 21 22 20 23 31 31 35 34 35 34 38 37 33 31 30 30 29 31 33 31 31 30 30 28 25 24 21 15 11 11
Wind_Direction
286 291 292 295 287 282 273 277 276 289 295 289 299 303 349 7 56 32 61 124 181 248 180 190 208 202 210 214 207 202 199 202 204 206 207 205 206 204 209 208 214 216 218 220
278 280 283 278 278 278 277 273 273 280 276 283 289 130 289 356 43 57 33 33 10 17 206 199 202 204 204 211 206 207 198 204 201 201 205 204 205 205 206 211 212 214 219 220
278 285 294 280 276 282 283 273 277 273 290 324 319 67 36 14 70 61 63 54 41 31 7 350 192 198 204 202 205 205 197 200 199 197 201 203 204 204 209 212 214 215 217 220
279 284 269 277 280 304 311 303 354 346 316 102 285 82 37 30 70 79 74 68 58 42 38 24 341 171 196 190 195 199 201 203 202 198 200 201 203 205 209 213 216 217 221 222
285 272 273 263 9 344 330 33 13 359 0 354 315 0 99 53 56 80 72 62 57 49 39 43 50 73 157 174 185 192 199 205 206 204 202 206 207 208 212 216 221 226 229 227
275 293 289 30 345 0 307 236 35 356 4 359 345 331 7 355 340 9 41 30 20 35 46 39 36 77 122 154 183 191 199 203 206 209 209 208 210 211 216 221 224 224 227 234
297 316 306 343 340 330 259 359 10 356 7 342 343 342 328 344 299 343 346 359 8 25 29 55 38 48 90 115 121 107 87 150 190 203 209 209 211 218 225 233 239 233 236 233
304 264 323 313 6 3 338 333 349 337 325 326 319 314 326 325 323 327 339 341 345 355 21 25 25 100 87 42 170 181 178 185 192 192 186 184 181 185 220 226 273 274 265 246
308 307 321 327 340 334 327 316 297 311 315 313 307 303 307 299 314 317 310 330 327 330 335 58 38 37 227 176 246 270 220 207 228 221 202 182 173 193 208 232 207 233 278 353
308 300 345 330 326 334 340 322 314 308 301 306 298 295 294 291 288 288 310 300 287 294 297 317 328 325 136 174 253 271 257 263 265 233 232 242 261 273 235 217 238 15 333 354
298 314 333 314 326 320 317 312 311 305 299 290 285 285 285 284 279 280 278 273 280 269 250 268 280 270 287 259 236 254 268 274 263 250 233 232 247 246 235 247 244 178 58 263
298 308 310 297 307 303 296 297 290 289 289 292 295 288 279 277 274 273 272 275 277 273 269 273 265 271 266 253 252 244 251 264 271 277 263 263 265 271 252 250 247 238 193 194
302 297 297 290 288 298 309 307 301 291 293 297 289 278 279 285 281 268 266 268 269 270 266 264 260 257 247 246 242 241 250 268 272 263 266 276 266 255 257 229 225 221 227 219
313 309 291 293 299 301 305 300 303 293 278 288 289 282 276 272 276 283 271 259 260 260 258 254 252 251 252 249 247 248 247 251 262 267 268 265 272 271 274 279 235 198 205 217
313 312 279 287 288 300 307 308 305 300 294 297 307 306 274 277 284 283 281 278 270 263 255 254 249 245 244 246 242 236 238 245 252 253 251 264 276 283 275 262 268 268 160 185
334 338 343 338 328 323 326 322 314 310 309 300 292 292 294 289 285 288 280 274 268 271 274 258 256 258 249 242 244 240 233 242 255 265 269 250 238 259 265 268 262 265 263 251
327 341 348 330 322 321 319 314 308 306 304 303 301 296 286 283 285 284 269 266 268 262 253 259 255 257 258 246 247 243 242 247 234 237 248 253 258 255 253 263 262 257 262 245
336 352 347 321 324 325 320 316 316 318 319 312 314 313 280 280 265 274 275 276 277 276 264 258 260 256 254 255 243 242 247 250 250 247 249 252 255 257 260 250 254 254 261 257
353 348 344 347 329 332 333 335 334 331 329 328 331 323 322 288 300 279 264 264 264 272 272 267 259 254 251 253 251 245 248 249 249 252 256 262 265 257 252 268 247 258 229 187
3 349 344 360 5 353 345 346 344 342 346 345 342 344 339 335 302 297 290 267 270 272 275 273 272 266 263 250 244 241 252 252 249 252 259 270 273 268 259 249 262 259 249 238
2 342 346 358 354 356 10 3 358 357 357 357 359 355 349 355 1 356 326 287 297 301 278 278 266 263 253 245 237 228 237 242 246 251 256 263 259 256 260 259 259 264 251 245
3 354 346 354 1 8 36 24 12 6 6 8 10 8 7 8 6 3 5 1 342 333 305 282 281 270 254 254 254 252 230 234 242 250 245 243 238 234 245 256 218 239 244 237
356 356 1 358 5 9 12 28 22 24 26 21 18 16 13 9 11 8 3 359 358 11 9 353 300 265 275 246 242 254 252 237 237 250 232 248 264 270 259 256 226 236 245 237
348 354 6 2 7 15 13 16 20 21 30 38 39 28 23 14 19 20 16 13 13 21 18 17 22 297 279 265 256 248 257 267 265 275 234 246 249 225 238 272 237 238 236 243
341 332 18 1 7 14 8 11 27 14 24 35 48 43 39 36 34 21 21 19 22 28 22 23 39 51 55 57 48 36 24 16 2 328 287 288 288 281 221 230 245 241 234 232
342 344 356 0 6 21 14 12 18 33 9 25 38 40 44 42 40 36 35 30 31 30 29 30 36 43 46 50 52 49 44 44 42 40 37 32 37 20 331 305 280 266 250 239
163 44 348 1 11 17 24 20 20 13 28 15 26 37 38 38 40 41 43 41 36 36 36 36 41 41 43 46 49 50 50 52 56 56 56 56 56 55 55 55 62 74 85 108